When you browse on this site, cookies collect data to enhance your experience and personalize the content and advertising you see.
Visit our Privacy Policy to learn more. By continuing to use the site, you agree to this use of cookies and data.
  • Em Portugal
  • Lista de países
  • Para 7 dias
  • Temperatura da água
  • Mapa do tempo
  • Widgets de tempo
  • user-avatar
    Iniciar Sessão

    Previsão horária em Janin

    Hoje, 26 Maio, Terça-feira

    Tempo Temperatura Precipitação Vento Pressão Humidade
    00:00 +8°C° 0 mm 2 m/s 756 mmHg 93%
    01:00 +8°C° 0 mm 2 m/s 756 mmHg 94%
    02:00 +7°C° 0 mm 2 m/s 756 mmHg 95%
    03:00 +7°C° 0 mm 2 m/s 757 mmHg 95%
    04:00 +7°C° 0 mm 2 m/s 757 mmHg 95%
    05:00 +7°C° 0 mm 2 m/s 757 mmHg 95%
    06:00 +8°C° 0 mm 3 m/s 757 mmHg 92%
    07:00 +10°C° 0 mm 3 m/s 757 mmHg 88%
    08:00 +12°C° 0 mm 3 m/s 758 mmHg 84%
    09:00 +13°C° 0.1 mm 3 m/s 758 mmHg 78%
    10:00 +14°C° 0.1 mm 4 m/s 758 mmHg 71%
    11:00 +16°C° 0.1 mm 5 m/s 758 mmHg 65%
    12:00 +16°C° 0.1 mm 5 m/s 758 mmHg 64%
    13:00 +17°C° 0.1 mm 5 m/s 758 mmHg 63%
    14:00 +17°C° 0.1 mm 5 m/s 758 mmHg 62%
    15:00 +17°C° 0.4 mm 5 m/s 757 mmHg 65%
    16:00 +17°C° 0.4 mm 5 m/s 757 mmHg 69%
    17:00 +16°C° 0.4 mm 5 m/s 757 mmHg 72%
    18:00 +15°C° 0.2 mm 4 m/s 757 mmHg 77%
    19:00 +14°C° 0.2 mm 4 m/s 757 mmHg 83%
    20:00 +13°C° 0.2 mm 3 m/s 757 mmHg 88%
    21:00 +12°C° 0.1 mm 3 m/s 757 mmHg 90%
    22:00 +11°C° 0.1 mm 3 m/s 758 mmHg 93%
    23:00 +10°C° 0.1 mm 3 m/s 758 mmHg 95%

    Amanhã, 27 Maio, Quarta-feira

    Tempo Temperatura Precipitação Vento Pressão Humidade
    00:00 +10°C° 0 mm 3 m/s 758 mmHg 95%
    01:00 +9°C° 0 mm 3 m/s 758 mmHg 95%
    02:00 +9°C° 0 mm 3 m/s 757 mmHg 96%
    03:00 +8°C° 0 mm 3 m/s 757 mmHg 96%
    04:00 +8°C° 0 mm 3 m/s 757 mmHg 96%
    05:00 +8°C° 0 mm 3 m/s 757 mmHg 95%
    06:00 +9°C° 0 mm 3 m/s 757 mmHg 91%
    07:00 +11°C° 0 mm 3 m/s 758 mmHg 88%
    08:00 +12°C° 0 mm 3 m/s 758 mmHg 84%
    09:00 +14°C° 0.1 mm 3 m/s 757 mmHg 77%
    10:00 +17°C° 0.1 mm 4 m/s 757 mmHg 70%
    11:00 +17°C° 0.1 mm 5 m/s 757 mmHg 64%
    12:00 +19°C° 0.1 mm 4 m/s 757 mmHg 61%
    13:00 +19°C° 0.1 mm 4 m/s 756 mmHg 58%
    14:00 +19°C° 0.1 mm 4 m/s 756 mmHg 56%
    15:00 +19°C° 0.1 mm 4 m/s 756 mmHg 58%
    16:00 +19°C° 0.1 mm 4 m/s 756 mmHg 60%
    17:00 +18°C° 0.1 mm 4 m/s 755 mmHg 63%
    18:00 +17°C° 0 mm 4 m/s 755 mmHg 69%
    19:00 +14°C° 0 mm 3 m/s 755 mmHg 76%
    20:00 +13°C° 0 mm 3 m/s 755 mmHg 82%
    21:00 +13°C° 0 mm 2 m/s 755 mmHg 86%
    22:00 +12°C° 0 mm 2 m/s 755 mmHg 89%
    23:00 +10°C° 0 mm 2 m/s 755 mmHg 92%

    Depois de amanhã, 28 Maio, Quinta-feira

    Tempo Temperatura Precipitação Vento Pressão Humidade
    00:00 +9°C° 0 mm 2 m/s 755 mmHg 93%
    01:00 +9°C° 0 mm 2 m/s 755 mmHg 93%
    02:00 +10°C° 0 mm 1 m/s 754 mmHg 93%
    03:00 +10°C° 0 mm 1 m/s 754 mmHg 92%
    04:00 +10°C° 0 mm 1 m/s 754 mmHg 91%
    05:00 +10°C° 0 mm 1 m/s 753 mmHg 90%
    06:00 +11°C° 0.3 mm 1 m/s 753 mmHg 89%
    07:00 +12°C° 0.3 mm 1 m/s 753 mmHg 89%
    08:00 +12°C° 0.3 mm 1 m/s 753 mmHg 89%
    09:00 +13°C° 0.7 mm 1 m/s 753 mmHg 84%
    10:00 +14°C° 0.7 mm 2 m/s 752 mmHg 79%
    11:00 +15°C° 0.7 mm 2 m/s 752 mmHg 74%
    12:00 +16°C° 0.2 mm 2 m/s 752 mmHg 69%
    13:00 +17°C° 0.2 mm 2 m/s 752 mmHg 64%
    14:00 +18°C° 0.2 mm 2 m/s 751 mmHg 58%
    15:00 +17°C° 0.7 mm 3 m/s 751 mmHg 64%
    16:00 +17°C° 0.7 mm 4 m/s 751 mmHg 70%
    17:00 +15°C° 0.7 mm 4 m/s 751 mmHg 77%
    18:00 +14°C° 0.6 mm 4 m/s 751 mmHg 81%
    19:00 +12°C° 0.6 mm 5 m/s 751 mmHg 85%
    20:00 +10°C° 0.6 mm 5 m/s 751 mmHg 89%
    21:00 +10°C° 0.1 mm 5 m/s 751 mmHg 90%
    22:00 +9°C° 0.1 mm 5 m/s 751 mmHg 91%
    23:00 +9°C° 0.1 mm 5 m/s 751 mmHg 92%

    29 Maio, Sexta-feira

    Tempo Temperatura Precipitação Vento Pressão Humidade
    00:00 +8°C° 0 mm 5 m/s 751 mmHg 93%
    01:00 +7°C° 0 mm 5 m/s 751 mmHg 93%
    02:00 +6°C° 0 mm 5 m/s 751 mmHg 93%
    03:00 +6°C° 0 mm 5 m/s 751 mmHg 93%
    04:00 +5°C° 0 mm 5 m/s 751 mmHg 93%
    05:00 +5°C° 0 mm 5 m/s 751 mmHg 93%
    06:00 +6°C° 0 mm 5 m/s 751 mmHg 91%
    07:00 +5°C° 0 mm 6 m/s 751 mmHg 89%
    08:00 +7°C° 0 mm 6 m/s 751 mmHg 86%
    09:00 +8°C° 0 mm 6 m/s 751 mmHg 84%
    10:00 +9°C° 0 mm 6 m/s 751 mmHg 82%
    11:00 +10°C° 0 mm 6 m/s 751 mmHg 79%
    12:00 +11°C° 0 mm 6 m/s 751 mmHg 75%
    13:00 +14°C° 0 mm 6 m/s 751 mmHg 71%
    14:00 +15°C° 0 mm 6 m/s 751 mmHg 66%
    15:00 +15°C° 0.1 mm 6 m/s 750 mmHg 65%
    16:00 +15°C° 0.1 mm 6 m/s 750 mmHg 64%
    17:00 +15°C° 0.1 mm 6 m/s 750 mmHg 63%
    18:00 +14°C° 0 mm 6 m/s 750 mmHg 69%
    19:00 +12°C° 0 mm 5 m/s 751 mmHg 74%
    20:00 +11°C° 0 mm 4 m/s 751 mmHg 79%
    21:00 +10°C° 0 mm 4 m/s 751 mmHg 82%
    22:00 +8°C° 0 mm 4 m/s 751 mmHg 86%
    23:00 +6°C° 0 mm 4 m/s 751 mmHg 89%

    30 Maio, Sábado

    Tempo Temperatura Precipitação Vento Pressão Humidade
    00:00 +6°C° 0 mm 4 m/s 751 mmHg 91%
    01:00 +5°C° 0 mm 4 m/s 751 mmHg 92%
    02:00 +5°C° 0 mm 4 m/s 751 mmHg 94%
    03:00 +5°C° 0 mm 4 m/s 751 mmHg 93%
    04:00 +5°C° 0 mm 4 m/s 751 mmHg 93%
    05:00 +5°C° 0 mm 4 m/s 751 mmHg 92%
    06:00 +6°C° 0 mm 4 m/s 751 mmHg 87%
    07:00 +7°C° 0 mm 4 m/s 751 mmHg 83%
    08:00 +10°C° 0 mm 4 m/s 750 mmHg 78%
    09:00 +11°C° 0 mm 4 m/s 750 mmHg 71%
    10:00 +13°C° 0 mm 5 m/s 750 mmHg 64%
    11:00 +15°C° 0 mm 5 m/s 750 mmHg 57%
    12:00 +15°C° 0 mm 5 m/s 750 mmHg 57%
    13:00 +16°C° 0 mm 5 m/s 750 mmHg 57%
    14:00 +16°C° 0 mm 5 m/s 749 mmHg 57%
    15:00 +15°C° 0.2 mm 5 m/s 749 mmHg 64%
    16:00 +15°C° 0.2 mm 5 m/s 749 mmHg 71%
    17:00 +14°C° 0.2 mm 5 m/s 749 mmHg 78%
    18:00 +13°C° 0.1 mm 4 m/s 748 mmHg 82%
    19:00 +12°C° 0.1 mm 4 m/s 748 mmHg 87%
    20:00 +11°C° 0.1 mm 4 m/s 748 mmHg 91%
    21:00 +11°C° 0 mm 4 m/s 748 mmHg 92%
    22:00 +10°C° 0 mm 4 m/s 747 mmHg 93%
    23:00 +10°C° 0 mm 4 m/s 747 mmHg 95%

    31 Maio, Domingo

    Tempo Temperatura Precipitação Vento Pressão Humidade
    00:00 +10°C° 0 mm 4 m/s 747 mmHg 95%
    01:00 +11°C° 0 mm 4 m/s 746 mmHg 96%
    02:00 +11°C° 0 mm 4 m/s 746 mmHg 96%
    03:00 +11°C° 0.1 mm 4 m/s 746 mmHg 96%
    04:00 +11°C° 0.1 mm 4 m/s 745 mmHg 97%
    05:00 +11°C° 0.1 mm 4 m/s 745 mmHg 97%
    06:00 +11°C° 0.5 mm 4 m/s 745 mmHg 97%
    07:00 +11°C° 0.5 mm 4 m/s 744 mmHg 96%
    08:00 +10°C° 0.5 mm 5 m/s 744 mmHg 96%
    09:00 +10°C° 1.2 mm 5 m/s 744 mmHg 96%
    10:00 +10°C° 1.2 mm 5 m/s 744 mmHg 96%
    11:00 +10°C° 1.2 mm 5 m/s 744 mmHg 95%
    12:00 +10°C° 3.6 mm 5 m/s 743 mmHg 96%
    13:00 +10°C° 3.6 mm 6 m/s 743 mmHg 96%
    14:00 +10°C° 3.6 mm 6 m/s 743 mmHg 97%
    15:00 +12°C° 2.5 mm 5 m/s 743 mmHg 97%
    16:00 +12°C° 2.5 mm 5 m/s 743 mmHg 96%
    17:00 +13°C° 2.5 mm 5 m/s 743 mmHg 96%
    18:00 +13°C° 0.6 mm 5 m/s 743 mmHg 96%
    19:00 +13°C° 0.6 mm 5 m/s 743 mmHg 96%
    20:00 +13°C° 0.6 mm 6 m/s 743 mmHg 96%
    21:00 +13°C° 0.4 mm 5 m/s 743 mmHg 96%
    22:00 +13°C° 0.4 mm 5 m/s 743 mmHg 96%
    23:00 +13°C° 0.4 mm 5 m/s 744 mmHg 96%
    Mostrar mais